TimeCST,TemperatureF,Dew PointF,Humidity,Sea Level PressureIn,VisibilityMPH,Wind Direction,Wind SpeedMPH,Gust SpeedMPH,PrecipitationIn,Events,Conditions,WindDirDegrees,DateUTC
12:53 AM,19.0,10.0,68,30.43,10.0,SSW,5.8,-,N/A,,Clear,200,2013-01-15 06:53:00
1:53 AM,19.0,10.9,71,30.41,10.0,SW,4.6,-,N/A,,Scattered Clouds,230,2013-01-15 07:53:00
2:53 AM,18.0,10.0,71,30.40,10.0,SW,4.6,-,N/A,,Mostly Cloudy,220,2013-01-15 08:53:00
3:53 AM,17.1,10.0,74,30.39,10.0,SSW,3.5,-,N/A,,Partly Cloudy,200,2013-01-15 09:53:00
5:53 AM,16.0,10.0,77,30.39,10.0,South,5.8,-,N/A,,Overcast,170,2013-01-15 11:53:00
6:53 AM,14.0,9.0,80,30.40,10.0,SSW,4.6,-,N/A,,Scattered Clouds,200,2013-01-15 12:53:00
7:53 AM,14.0,9.0,80,30.40,10.0,SSW,5.8,-,N/A,,Clear,210,2013-01-15 13:53:00
8:53 AM,19.9,12.0,71,30.40,10.0,SSW,4.6,-,N/A,,Clear,200,2013-01-15 14:53:00
9:53 AM,24.1,12.0,60,30.37,10.0,SSW,3.5,-,N/A,,Clear,200,2013-01-15 15:53:00
10:53 AM,26.1,10.9,53,30.37,10.0,South,5.8,-,N/A,,Clear,190,2013-01-15 16:53:00
11:53 AM,28.0,9.0,45,30.34,10.0,South,9.2,-,N/A,,Mostly Cloudy,170,2013-01-15 17:53:00
12:53 PM,28.9,8.1,41,30.31,10.0,South,4.6,-,N/A,,Clear,190,2013-01-15 18:53:00
1:53 PM,30.0,8.1,40,30.29,10.0,SSW,6.9,-,N/A,,Clear,210,2013-01-15 19:53:00
2:53 PM,30.9,8.1,38,30.28,10.0,SSW,8.1,-,N/A,,Clear,200,2013-01-15 20:53:00
3:53 PM,30.0,9.0,41,30.27,10.0,SSW,9.2,-,N/A,,Clear,200,2013-01-15 21:53:00
4:53 PM,28.0,7.0,41,30.26,10.0,South,6.9,-,N/A,,Clear,190,2013-01-15 22:53:00
5:53 PM,26.1,7.0,44,30.25,10.0,South,6.9,-,N/A,,Clear,180,2013-01-15 23:53:00
6:53 PM,23.0,7.0,50,30.25,10.0,SSW,5.8,-,N/A,,Clear,200,2013-01-16 00:53:00
7:53 PM,21.9,8.1,55,30.23,10.0,South,6.9,-,N/A,,Clear,180,2013-01-16 01:53:00
8:53 PM,19.0,9.0,65,30.21,10.0,SSW,6.9,-,N/A,,Clear,210,2013-01-16 02:53:00
9:53 PM,19.9,9.0,62,30.18,10.0,SSW,9.2,-,N/A,,Clear,200,2013-01-16 03:53:00
10:53 PM,18.0,9.0,68,30.17,10.0,SSW,9.2,-,N/A,,Clear,210,2013-01-16 04:53:00
11:53 PM,17.1,9.0,71,30.14,10.0,SSW,10.4,-,N/A,,Clear,200,2013-01-16 05:53:00